| time (UTC) | temp F | wind direction | speed MPH | gust MPH | rain 1hr in | rain 24hr in | rain mn in | humidity % | barometer mb |
| 20260509185055 | 71 | 87 | 3.0 | 6.0 | 0.00 | 0.00 | 0.00 | 50 | 1006.8 |
| 20260509184035 | 71 | 92 | 3.0 | 6.0 | 0.00 | 0.00 | 0.00 | 51 | 1006.9 |
| 20260509183118 | 70 | 103 | 2.0 | 5.0 | 0.00 | 0.00 | 0.00 | 54 | 1007.0 |
| 20260509182058 | 70 | 81 | 2.0 | 3.0 | 0.00 | 0.00 | 0.00 | 55 | 1006.9 |
| 20260509181037 | 69 | 89 | 3.0 | 6.0 | 0.00 | 0.00 | 0.00 | 56 | 1006.9 |
| 20260509180017 | 69 | 119 | 2.0 | 6.0 | 0.00 | 0.00 | 0.00 | 56 | 1007.0 |
| 20260509175100 | 69 | 96 | 2.0 | 3.0 | 0.00 | 0.00 | 0.00 | 56 | 1007.1 |
| 20260509174040 | 69 | 91 | 1.0 | 5.0 | 0.00 | 0.00 | 0.00 | 57 | 1007.1 |
| 20260509173020 | 68 | 107 | 2.0 | 3.0 | 0.00 | 0.00 | 0.00 | 58 | 1007.4 |
| 20260509172101 | 67 | 118 | 2.0 | 5.0 | 0.00 | 0.00 | 0.00 | 59 | 1007.4 |
| 20260509171101 | 68 | 110 | 2.0 | 2.0 | 0.00 | 0.00 | 0.00 | 58 | 1007.4 |
| 20260509170041 | 67 | 117 | 1.0 | 3.0 | 0.00 | 0.00 | 0.00 | 59 | 1007.5 |
| 20260509165123 | 66 | 110 | 2.0 | 6.0 | 0.00 | 0.00 | 0.00 | 60 | 1007.5 |
| 20260509164043 | 67 | 28 | 2.0 | 5.0 | 0.00 | 0.00 | 0.00 | 60 | 1007.7 |
| 20260509163056 | 66 | 94 | 1.0 | 2.0 | 0.00 | 0.00 | 0.00 | 61 | 1007.6 |
| 20260509162035 | 66 | 82 | 1.0 | 3.0 | 0.00 | 0.00 | 0.00 | 61 | 1007.5 |
| 20260509161116 | 66 | 81 | 2.0 | 6.0 | 0.00 | 0.00 | 0.00 | 60 | 1007.6 |
| 20260509160056 | 66 | 38 | 2.0 | 6.0 | 0.00 | 0.00 | 0.00 | 62 | 1007.6 |
| 20260509155037 | 65 | 76 | 1.0 | 3.0 | 0.00 | 0.00 | 0.00 | 63 | 1007.5 |
| 20260509154118 | 65 | 76 | 2.0 | 6.0 | 0.00 | 0.00 | 0.00 | 63 | 1007.8 |
| 20260509153058 | 65 | 76 | 2.0 | 5.0 | 0.00 | 0.00 | 0.00 | 63 | 1007.4 |
| 20260509152113 | 64 | 75 | 2.0 | 3.0 | 0.00 | 0.00 | 0.00 | 64 | 1007.5 |
| 20260509151038 | 64 | 75 | 1.0 | 3.0 | 0.00 | 0.00 | 0.00 | 64 | 1007.6 |
| 20260509150100 | 63 | 75 | 1.0 | 3.0 | 0.00 | 0.00 | 0.00 | 64 | 1007.5 |
| 20260509145111 | 63 | 75 | 2.0 | 3.0 | 0.00 | 0.00 | 0.00 | 65 | 1007.4 |
| 20260509144021 | 63 | 111 | 1.0 | 3.0 | 0.00 | 0.00 | 0.00 | 64 | 1007.3 |
| 20260509143034 | 62 | 127 | 1.0 | 3.0 | 0.00 | 0.00 | 0.00 | 65 | 1007.5 |
| 20260509142113 | 61 | 105 | 2.0 | 3.0 | 0.00 | 0.00 | 0.00 | 68 | 1007.4 |
| 20260509141053 | 61 | 133 | 2.0 | 3.0 | 0.00 | 0.00 | 0.00 | 68 | 1007.4 |
| 20260509140033 | 61 | 97 | 1.0 | 5.0 | 0.00 | 0.00 | 0.00 | 70 | 1007.3 |
| 20260509135045 | 60 | 84 | 1.0 | 2.0 | 0.00 | 0.00 | 0.00 | 72 | 1007.3 |
| 20260509134025 | 60 | 103 | 1.0 | 3.0 | 0.00 | 0.00 | 0.00 | 74 | 1007.3 |
| 20260509133035 | 59 | 141 | 1.0 | 3.0 | 0.00 | 0.00 | 0.00 | 77 | 1007.2 |
| 20260509132049 | 58 | 142 | 1.0 | 2.0 | 0.00 | 0.00 | 0.00 | 83 | 1007.2 |
| 20260509131100 | 56 | 142 | 1.0 | 3.0 | 0.00 | 0.00 | 0.00 | 88 | 1007.2 |
| 20260509130038 | 55 | 142 | 1.0 | 2.0 | 0.00 | 0.00 | 0.00 | 89 | 1007.4 |
| 20260509125120 | 55 | 142 | 1.0 | 3.0 | 0.00 | 0.00 | 0.00 | 90 | 1007.3 |
| 20260509124100 | 54 | 142 | 0.0 | 1.0 | 0.00 | 0.00 | 0.00 | 90 | 1007.4 |
| 20260509123040 | 53 | 0.0 | 0.0 | 0.00 | 0.00 | 0.00 | 91 | 1007.2 | |
| 20260509122021 | 53 | 142 | 0.0 | 1.0 | 0.00 | 0.00 | 0.00 | 91 | 1007.1 |
| 20260509121031 | 52 | 0.0 | 0.0 | 0.00 | 0.00 | 0.00 | 91 | 1007.0 | |
| 20260509120133 | 52 | 142 | 1.0 | 2.0 | 0.00 | 0.00 | 0.00 | 91 | 1006.9 |
| 20260509115052 | 52 | 0.0 | 0.0 | 0.00 | 0.00 | 0.00 | 91 | 1006.8 | |
| 20260509114104 | 51 | 0.0 | 0.0 | 0.00 | 0.00 | 0.00 | 91 | 1006.9 | |
| 20260509113044 | 51 | 0.0 | 0.0 | 0.00 | 0.00 | 0.00 | 91 | 1007.0 | |
| 20260509112024 | 51 | 0.0 | 0.0 | 0.00 | 0.00 | 0.00 | 91 | 1006.9 | |
| 20260509111105 | 51 | 0.0 | 0.0 | 0.00 | 0.00 | 0.00 | 91 | 1006.8 | |
| 20260509110045 | 51 | 0.0 | 0.0 | 0.00 | 0.00 | 0.00 | 91 | 1006.9 | |
| 20260509105027 | 51 | 0.0 | 0.0 | 0.00 | 0.00 | 0.00 | 91 | 1006.7 | |
| 20260509104036 | 51 | 0.0 | 0.0 | 0.00 | 0.00 | 0.00 | 91 | 1006.5 | |
| 20260509103118 | 51 | 0.0 | 0.0 | 0.00 | 0.00 | 0.00 | 91 | 1006.8 | |
| 20260509102118 | 51 | 0.0 | 0.0 | 0.00 | 0.00 | 0.00 | 91 | 1006.8 | |
| 20260509101058 | 51 | 0.0 | 0.0 | 0.00 | 0.00 | 0.00 | 90 | 1006.8 | |
| 20260509100018 | 51 | 0.0 | 0.0 | 0.00 | 0.00 | 0.00 | 90 | 1006.7 | |
| 20260509095101 | 51 | 0.0 | 0.0 | 0.00 | 0.00 | 0.00 | 90 | 1006.7 | |
| 20260509094040 | 52 | 0.0 | 0.0 | 0.00 | 0.00 | 0.00 | 90 | 1006.5 | |
| 20260509093040 | 52 | 142 | 0.0 | 1.0 | 0.00 | 0.00 | 0.00 | 90 | 1006.7 |
| 20260509092102 | 52 | 142 | 0.0 | 2.0 | 0.00 | 0.00 | 0.00 | 90 | 1006.7 |
| 20260509091044 | 52 | 142 | 1.0 | 2.0 | 0.00 | 0.00 | 0.00 | 90 | 1006.8 |
| 20260509090022 | 52 | 142 | 0.0 | 1.0 | 0.00 | 0.00 | 0.00 | 90 | 1006.7 |
| 20260509085104 | 52 | 143 | 1.0 | 5.0 | 0.00 | 0.00 | 0.00 | 90 | 1006.8 |
| 20260509084045 | 52 | 0.0 | 0.0 | 0.00 | 0.00 | 0.00 | 90 | 1006.7 | |
| 20260509083024 | 53 | 144 | 0.0 | 1.0 | 0.00 | 0.00 | 0.00 | 90 | 1006.6 |
| 20260509082055 | 53 | 0.0 | 0.0 | 0.00 | 0.00 | 0.00 | 90 | 1006.7 | |
| 20260509081117 | 53 | 0.0 | 0.0 | 0.00 | 0.00 | 0.00 | 90 | 1006.9 | |
| 20260509080057 | 53 | 0.0 | 0.0 | 0.00 | 0.00 | 0.00 | 90 | 1006.9 | |
| 20260509075037 | 53 | 0.0 | 0.0 | 0.00 | 0.00 | 0.00 | 90 | 1006.9 | |
| 20260509074037 | 53 | 0.0 | 0.0 | 0.00 | 0.00 | 0.00 | 90 | 1006.9 | |
| 20260509073100 | 53 | 0.0 | 0.0 | 0.00 | 0.00 | 0.00 | 90 | 1007.0 | |
| 20260509072040 | 53 | 0.0 | 0.0 | 0.00 | 0.00 | 0.00 | 90 | 1007.0 | |
| 20260509071040 | 53 | 144 | 0.0 | 1.0 | 0.00 | 0.00 | 0.00 | 90 | 1007.0 |
| 20260509070101 | 53 | 0.0 | 0.0 | 0.00 | 0.00 | 0.00 | 90 | 1007.3 | |
| 20260509065041 | 53 | 144 | 0.0 | 1.0 | 0.00 | 0.00 | 0.00 | 90 | 1007.4 |
| 20260509064042 | 53 | 0.0 | 0.0 | 0.00 | 0.00 | 0.00 | 90 | 1007.8 | |
| 20260509063103 | 53 | 144 | 0.0 | 2.0 | 0.00 | 0.00 | 0.00 | 90 | 1007.8 |
| 20260509062107 | 53 | 0.0 | 0.0 | 0.00 | 0.00 | 0.00 | 90 | 1007.9 | |
| 20260509061023 | 53 | 145 | 0.0 | 2.0 | 0.00 | 0.00 | 0.00 | 90 | 1008.1 |
| 20260509060054 | 53 | 145 | 1.0 | 2.0 | 0.00 | 0.00 | 0.00 | 90 | 1008.3 |
| 20260509055046 | 53 | 145 | 0.0 | 1.0 | 0.00 | 0.00 | 0.00 | 90 | 1008.4 |
| 20260509054117 | 53 | 0.0 | 0.0 | 0.00 | 0.00 | 0.00 | 90 | 1008.6 | |
| 20260509053107 | 53 | 0.0 | 0.0 | 0.00 | 0.00 | 0.00 | 90 | 1008.5 | |
| 20260509052047 | 53 | 0.0 | 0.0 | 0.00 | 0.00 | 0.00 | 90 | 1008.6 | |
| 20260509051118 | 53 | 151 | 0.0 | 1.0 | 0.00 | 0.00 | 0.00 | 90 | 1008.5 |
| 20260509050131 | 53 | 166 | 0.0 | 1.0 | 0.00 | 0.00 | 0.00 | 90 | 1008.6 |
| 20260509045018 | 53 | 162 | 1.0 | 2.0 | 0.00 | 0.00 | 0.00 | 90 | 1008.5 |
| 20260509044030 | 53 | 158 | 0.0 | 1.0 | 0.00 | 0.00 | 0.00 | 90 | 1008.6 |
| 20260509043111 | 53 | 158 | 0.0 | 1.0 | 0.00 | 0.00 | 0.00 | 90 | 1008.4 |
| 20260509042051 | 53 | 211 | 0.0 | 1.0 | 0.00 | 0.00 | 0.00 | 90 | 1008.5 |
| 20260509041031 | 53 | 150 | 0.0 | 1.0 | 0.00 | 0.00 | 0.00 | 90 | 1008.3 |
| 20260509040114 | 53 | 0.0 | 0.0 | 0.00 | 0.00 | 0.00 | 89 | 1008.3 | |
| 20260509035054 | 53 | 152 | 0.0 | 1.0 | 0.00 | 0.00 | 0.00 | 89 | 1008.4 |
| 20260509034034 | 53 | 0.0 | 0.0 | 0.00 | 0.00 | 0.00 | 89 | 1008.4 | |
| 20260509033115 | 53 | 0.0 | 0.0 | 0.00 | 0.00 | 0.00 | 89 | 1008.4 | |
| 20260509032055 | 53 | 0.0 | 0.0 | 0.00 | 0.00 | 0.00 | 89 | 1008.4 | |
| 20260509031035 | 53 | 152 | 0.0 | 1.0 | 0.00 | 0.00 | 0.00 | 89 | 1008.4 |
| 20260509030117 | 53 | 0.0 | 0.0 | 0.00 | 0.00 | 0.00 | 89 | 1008.5 | |
| 20260509025058 | 53 | 152 | 0.0 | 1.0 | 0.00 | 0.00 | 0.00 | 89 | 1008.7 |
| 20260509024037 | 53 | 152 | 0.0 | 1.0 | 0.00 | 0.00 | 0.00 | 89 | 1008.7 |
| 20260509023017 | 53 | 0.0 | 0.0 | 0.00 | 0.00 | 0.00 | 89 | 1008.8 | |
| 20260509022100 | 53 | 151 | 0.0 | 1.0 | 0.00 | 0.00 | 0.00 | 89 | 1009.0 |
| 20260509021110 | 53 | 152 | 1.0 | 2.0 | 0.00 | 0.00 | 0.00 | 89 | 1008.7 |
| 20260509020020 | 53 | 152 | 1.0 | 3.0 | 0.00 | 0.00 | 0.00 | 89 | 1008.7 |
| 20260509015101 | 53 | 213 | 0.0 | 1.0 | 0.00 | 0.00 | 0.00 | 89 | 1008.4 |
| 20260509014101 | 53 | 134 | 0.0 | 2.0 | 0.00 | 0.00 | 0.00 | 89 | 1008.5 |
| 20260509013021 | 53 | 135 | 0.0 | 1.0 | 0.00 | 0.00 | 0.00 | 89 | 1008.5 |
| 20260509012103 | 53 | 134 | 1.0 | 2.0 | 0.00 | 0.00 | 0.00 | 89 | 1008.4 |
| 20260509011043 | 53 | 138 | 1.0 | 2.0 | 0.00 | 0.00 | 0.00 | 89 | 1008.4 |
| 20260509010043 | 53 | 138 | 0.0 | 1.0 | 0.00 | 0.00 | 0.00 | 89 | 1008.6 |
| 20260509005125 | 53 | 0.0 | 0.0 | 0.00 | 0.00 | 0.00 | 89 | 1008.7 | |
| 20260509004045 | 53 | 0.0 | 0.0 | 0.00 | 0.00 | 0.00 | 88 | 1008.5 | |
| 20260509003025 | 53 | 0.0 | 0.0 | 0.00 | 0.00 | 0.00 | 88 | 1008.4 | |
| 20260509002127 | 53 | 138 | 0.0 | 1.0 | 0.00 | 0.00 | 0.00 | 88 | 1008.5 |
| 20260509001047 | 53 | 138 | 0.0 | 1.0 | 0.00 | 0.00 | 0.00 | 88 | 1008.8 |
| 20260509000027 | 53 | 138 | 1.0 | 3.0 | 0.00 | 0.00 | 0.00 | 88 | 1008.9 |
| 20260508235130 | 53 | 140 | 0.0 | 1.0 | 0.00 | 0.00 | 0.00 | 88 | 1008.9 |
| 20260508234049 | 53 | 0.0 | 0.0 | 0.00 | 0.00 | 0.00 | 88 | 1008.9 | |
| 20260508233030 | 53 | 140 | 0.0 | 2.0 | 0.00 | 0.00 | 0.00 | 87 | 1008.8 |
| 20260508232111 | 53 | 140 | 1.0 | 2.0 | 0.00 | 0.00 | 0.00 | 87 | 1008.8 |
| 20260508231051 | 53 | 0.0 | 0.0 | 0.00 | 0.00 | 0.00 | 87 | 1009.0 | |
| 20260508230031 | 53 | 140 | 0.0 | 1.0 | 0.00 | 0.00 | 0.00 | 87 | 1009.2 |
| 20260508225113 | 53 | 0.0 | 0.0 | 0.00 | 0.00 | 0.00 | 86 | 1009.1 | |
| 20260508224053 | 54 | 140 | 0.0 | 1.0 | 0.00 | 0.00 | 0.00 | 86 | 1008.9 |
| 20260508223033 | 54 | 140 | 0.0 | 2.0 | 0.00 | 0.00 | 0.00 | 85 | 1009.1 |
| 20260508222135 | 54 | 0.0 | 0.0 | 0.00 | 0.00 | 0.00 | 85 | 1009.3 | |
| 20260508221115 | 54 | 140 | 0.0 | 1.0 | 0.00 | 0.00 | 0.00 | 84 | 1009.3 |
| 20260508220035 | 54 | 0.0 | 0.0 | 0.00 | 0.00 | 0.00 | 84 | 1009.4 | |
| 20260508215117 | 54 | 140 | 0.0 | 1.0 | 0.00 | 0.00 | 0.00 | 83 | 1009.5 |
| 20260508214057 | 55 | 0.0 | 0.0 | 0.00 | 0.00 | 0.00 | 82 | 1009.4 | |
| 20260508213057 | 55 | 140 | 0.0 | 2.0 | 0.00 | 0.00 | 0.00 | 81 | 1009.2 |
| 20260508212017 | 56 | 140 | 1.0 | 2.0 | 0.00 | 0.00 | 0.00 | 79 | 1009.2 |
| 20260508211100 | 57 | 156 | 1.0 | 3.0 | 0.00 | 0.00 | 0.00 | 76 | 1009.1 |
| 20260508210100 | 60 | 194 | 2.0 | 5.0 | 0.00 | 0.00 | 0.00 | 66 | 1009.2 |
| 20260508205019 | 61 | 0.0 | 0.0 | 0.00 | 0.00 | 0.00 | 60 | 1008.8 | |
| 20260508204121 | 62 | 0.0 | 0.0 | 0.00 | 0.00 | 0.00 | 57 | 1008.7 | |
| 20260508203041 | 63 | 119 | 1.0 | 2.0 | 0.00 | 0.00 | 0.00 | 54 | 1008.7 |
| 20260508202021 | 64 | 118 | 1.0 | 3.0 | 0.00 | 0.00 | 0.00 | 50 | 1008.9 |
| 20260508201103 | 64 | 124 | 0.0 | 2.0 | 0.00 | 0.00 | 0.00 | 51 | 1008.9 |
| 20260508200043 | 64 | 124 | 0.0 | 1.0 | 0.00 | 0.00 | 0.00 | 50 | 1009.1 |
| 20260508195023 | 64 | 124 | 1.0 | 2.0 | 0.00 | 0.00 | 0.00 | 50 | 1009.1 |
| 20260508194105 | 64 | 124 | 1.0 | 2.0 | 0.00 | 0.00 | 0.00 | 49 | 1009.2 |
| 20260508193045 | 64 | 124 | 1.0 | 3.0 | 0.00 | 0.00 | 0.00 | 49 | 1009.4 |
| 20260508192025 | 63 | 124 | 1.0 | 2.0 | 0.00 | 0.00 | 0.00 | 51 | 1009.6 |
| 20260508191107 | 63 | 124 | 1.0 | 1.0 | 0.00 | 0.00 | 0.00 | 51 | 1009.7 |
| 20260508190047 | 63 | 125 | 2.0 | 3.0 | 0.00 | 0.00 | 0.00 | 50 | 1009.9 |